Mankato, MN

3:44 PM CDT on October 20, 2017 (GMT -0500)
Mankato Regional

Weather History for KMKT - March, 2014

Change the Weather History Date:

Saturday, March 22, 2014

  Actual Average Record
Temperature  
Mean Temperature 16 °F -  
Max Temperature 21 °F 40 °F 66 °F (2012)
Min Temperature 12 °F 25 °F 8 °F (2002)
Degree Days  
Heating Degree Days 48    
Moisture  
Dew Point 7 °F    
Average Humidity 64    
Maximum Humidity 79    
Minimum Humidity 54    
Precipitation  
Precipitation 0.00 in - - ()
Sea Level Pressure  
Sea Level Pressure 30.38 in    
Wind  
Wind Speed 18 mph (NNW)    
Max Wind Speed 23 mph    
Max Gust Speed 29 mph    
Visibility 10 miles    
Events      
Averages and records for this station are not official NWS values.
T = Trace of Precipitation, MM = Missing Value Source: NWS Daily Summary

Daily Weather History Graph

Daily Weather History Graph

Search for Another Location

Airport or City:

Trip Planner

Search our weather history database for the weather conditions in past years. The results will help you decide how hot, cold, wet, or windy it might be!

Date:

Astronomy

Mar. 22, 2014 Rise Set
Actual Time 7:15 AM CDT 7:30 PM CDT
Civil Twilight 6:46 AM CDT 7:59 PM CDT
Nautical Twilight 6:12 AM CDT 8:33 PM CDT
Astronomical Twilight 5:37 AM CDT 9:08 PM CDT
Moon 1:00 AM CDT (3/22) 10:48 AM CDT (3/22)
Length of Visible Light 13h 13m
Length of Day
12h 15m
Waning Gibbous, 65% of the Moon is Illuminated
Mar 22
Waning Gibbous
Mar 23
Last Quarter
Mar 30
New
Apr 7
First Quarter
Apr 15
Full

Hourly Weather History & Observations

Time (CDT) Temp. Windchill Dew Point Humidity Pressure Visibility Wind Dir Wind Speed Gust Speed Precip Events Conditions
12:15 AM 21.2 °F 5.6 °F 12.2 °F 68% 30.18 in 10.0 mi NNW 20.7 mph 24.2 mph N/A   Clear
12:35 AM 21.2 °F 6.0 °F 12.2 °F 68% 30.19 in 10.0 mi NNW 19.6 mph - N/A   Clear
12:55 AM 19.4 °F 4.1 °F 10.4 °F 68% 30.19 in 10.0 mi NNW 18.4 mph 25.3 mph N/A   Clear
1:15 AM 19.4 °F 3.6 °F 10.4 °F 68% 30.20 in 10.0 mi NNW 19.6 mph - N/A   Clear
1:35 AM 19.4 °F 4.1 °F 12.2 °F 74% 30.21 in 10.0 mi NNW 18.4 mph 21.9 mph N/A   Clear
1:55 AM 17.6 °F 2.7 °F 10.4 °F 73% 30.22 in 10.0 mi NNW 16.1 mph 24.2 mph N/A   Clear
2:15 AM 17.6 °F 0.1 °F 8.6 °F 68% 30.23 in 10.0 mi NNW 23.0 mph 28.8 mph N/A   Clear
2:35 AM 17.6 °F 1.3 °F 10.4 °F 73% 30.23 in 10.0 mi NNW 19.6 mph 24.2 mph N/A   Clear
2:55 AM 17.6 °F 1.7 °F 8.6 °F 68% 30.25 in 10.0 mi NNW 18.4 mph 24.2 mph N/A   Clear
3:15 AM 17.6 °F 1.7 °F 8.6 °F 68% 30.25 in 10.0 mi NNW 18.4 mph 28.8 mph N/A   Clear
3:35 AM 15.8 °F -0.6 °F 8.6 °F 73% 30.25 in 10.0 mi NNW 18.4 mph 26.5 mph N/A   Clear
3:55 AM 15.8 °F -1.5 °F 8.6 °F 73% 30.25 in 10.0 mi NNW 20.7 mph - N/A   Clear
4:15 AM 15.8 °F 0.3 °F 8.6 °F 73% 30.26 in 10.0 mi NNW 16.1 mph 24.2 mph N/A   Clear
4:35 AM 15.8 °F -1.5 °F 6.8 °F 68% 30.26 in 10.0 mi North 20.7 mph 27.6 mph N/A   Clear
4:55 AM 15.8 °F -1.1 °F 6.8 °F 68% 30.27 in 10.0 mi NNW 19.6 mph - N/A   Clear
5:15 AM 14.0 °F -3.4 °F 6.8 °F 73% 30.29 in 10.0 mi NNW 19.6 mph 24.2 mph N/A   Clear
5:35 AM 14.0 °F -2.5 °F 6.8 °F 73% 30.30 in 10.0 mi NNW 17.3 mph 25.3 mph N/A   Clear
5:55 AM 12.2 °F -4.8 °F 6.8 °F 79% 30.31 in 10.0 mi NNW 17.3 mph 20.7 mph N/A   Clear
6:15 AM 12.2 °F -5.3 °F 3.2 °F 67% 30.32 in 10.0 mi NNW 18.4 mph 24.2 mph N/A   Clear
6:35 AM 12.2 °F -5.8 °F 3.2 °F 67% 30.33 in 10.0 mi NNW 19.6 mph - N/A   Clear
6:55 AM 12.2 °F -4.3 °F 5.0 °F 73% 30.34 in 10.0 mi NNW 16.1 mph 21.9 mph N/A   Clear
7:15 AM 12.2 °F -5.3 °F 3.2 °F 67% 30.35 in 10.0 mi NNW 18.4 mph 24.2 mph N/A   Clear
7:35 AM 12.2 °F -4.8 °F 3.2 °F 67% 30.36 in 10.0 mi NNW 17.3 mph 23.0 mph N/A   Clear
7:55 AM 12.2 °F -5.3 °F 3.2 °F 67% 30.37 in 10.0 mi NNW 18.4 mph - N/A   Clear
8:15 AM 12.2 °F -4.8 °F 3.2 °F 67% 30.37 in 10.0 mi NNW 17.3 mph 25.3 mph N/A   Clear
8:35 AM 12.2 °F -5.8 °F 3.2 °F 67% 30.38 in 10.0 mi NNW 19.6 mph - N/A   Clear
8:55 AM 12.2 °F -5.3 °F 3.2 °F 67% 30.38 in 10.0 mi NNW 18.4 mph - N/A   Clear
9:15 AM 12.2 °F -5.3 °F 5.0 °F 73% 30.39 in 10.0 mi NNW 18.4 mph 23.0 mph N/A   Clear
9:35 AM 14.0 °F -2.5 °F 5.0 °F 67% 30.40 in 10.0 mi NNW 17.3 mph - N/A   Clear
9:55 AM 14.0 °F -3.4 °F 5.0 °F 67% 30.41 in 10.0 mi NNW 19.6 mph - N/A   Clear
10:15 AM 15.8 °F -1.5 °F 3.2 °F 58% 30.41 in 10.0 mi North 20.7 mph - N/A   Clear
10:35 AM 15.8 °F 0.3 °F 5.0 °F 62% 30.42 in 10.0 mi North 16.1 mph 23.0 mph N/A   Clear
10:55 AM 15.8 °F 0.9 °F 5.0 °F 62% 30.43 in 10.0 mi NNW 15.0 mph 21.9 mph N/A   Clear
11:15 AM 17.6 °F 0.9 °F 5.0 °F 58% 30.43 in 10.0 mi NNW 20.7 mph - N/A   Clear
11:35 AM 17.6 °F 1.7 °F 6.8 °F 63% 30.43 in 10.0 mi North 18.4 mph 25.3 mph N/A   Clear
11:55 AM 17.6 °F 2.2 °F 6.8 °F 63% 30.43 in 10.0 mi NNW 17.3 mph - N/A   Partly Cloudy
12:15 PM 17.6 °F 2.7 °F 5.0 °F 58% 30.43 in 10.0 mi NNW 16.1 mph 23.0 mph N/A   Clear
12:35 PM 19.4 °F 3.6 °F 6.8 °F 58% 30.43 in 10.0 mi NNW 19.6 mph 25.3 mph N/A   Clear
12:55 PM 19.4 °F 3.6 °F 8.6 °F 63% 30.43 in 10.0 mi NNW 19.6 mph 24.2 mph N/A   Partly Cloudy
1:15 PM 19.4 °F 3.6 °F 8.6 °F 63% 30.43 in 10.0 mi North 19.6 mph 24.2 mph N/A   Clear
1:35 PM 19.4 °F 3.2 °F 8.6 °F 63% 30.43 in 10.0 mi North 20.7 mph 24.2 mph N/A   Scattered Clouds
1:55 PM 21.2 °F 7.8 °F 6.8 °F 54% 30.43 in 10.0 mi NNW 15.0 mph 27.6 mph N/A   Mostly Cloudy
2:15 PM 21.2 °F 6.4 °F 6.8 °F 54% 30.42 in 10.0 mi NNW 18.4 mph 27.6 mph N/A   Mostly Cloudy
2:35 PM 21.2 °F 6.0 °F 8.6 °F 58% 30.42 in 10.0 mi NNW 19.6 mph 26.5 mph N/A   Mostly Cloudy
2:55 PM 21.2 °F 5.2 °F 10.4 °F 63% 30.42 in 10.0 mi North 21.9 mph - N/A   Mostly Cloudy
3:15 PM 21.2 °F 6.8 °F 8.6 °F 58% 30.42 in 10.0 mi NNW 17.3 mph 23.0 mph N/A   Mostly Cloudy
3:35 PM 21.2 °F 6.8 °F 6.8 °F 54% 30.42 in 10.0 mi NNW 17.3 mph 25.3 mph N/A   Mostly Cloudy
3:55 PM 21.2 °F 7.3 °F 6.8 °F 54% 30.43 in 10.0 mi NNW 16.1 mph 23.0 mph N/A   Mostly Cloudy
4:15 PM 21.2 °F 6.0 °F 8.6 °F 58% 30.42 in 10.0 mi NNW 19.6 mph 24.2 mph N/A   Scattered Clouds
4:35 PM 21.2 °F 6.8 °F 8.6 °F 58% 30.42 in 10.0 mi NNW 17.3 mph 25.3 mph N/A   Mostly Cloudy
4:55 PM 21.2 °F 6.4 °F 8.6 °F 58% 30.42 in 10.0 mi NNW 18.4 mph 21.9 mph N/A   Mostly Cloudy
5:15 PM 21.2 °F 6.4 °F 8.6 °F 58% 30.42 in 10.0 mi NNW 18.4 mph 21.9 mph N/A   Mostly Cloudy
5:35 PM 21.2 °F 7.8 °F 8.6 °F 58% 30.43 in 10.0 mi NNW 15.0 mph 23.0 mph N/A   Scattered Clouds
5:55 PM 21.2 °F 7.8 °F 8.6 °F 58% 30.43 in 10.0 mi NNW 15.0 mph 21.9 mph N/A   Mostly Cloudy
6:15 PM 21.2 °F 7.8 °F 8.6 °F 58% 30.43 in 10.0 mi NW 15.0 mph 21.9 mph N/A   Overcast
6:35 PM 21.2 °F 7.3 °F 8.6 °F 58% 30.43 in 10.0 mi NW 16.1 mph 23.0 mph N/A   Overcast
6:55 PM 21.2 °F 8.3 °F 8.6 °F 58% 30.43 in 10.0 mi NW 13.8 mph 20.7 mph N/A   Overcast
7:15 PM 21.2 °F 7.3 °F 6.8 °F 54% 30.43 in 10.0 mi NW 16.1 mph 21.9 mph N/A   Overcast
7:35 PM 21.2 °F 6.8 °F 6.8 °F 54% 30.43 in 10.0 mi NNW 17.3 mph - N/A   Mostly Cloudy
7:55 PM 21.2 °F 8.3 °F 6.8 °F 54% 30.44 in 10.0 mi NNW 13.8 mph 19.6 mph N/A   Scattered Clouds
8:15 PM 19.4 °F 4.5 °F 8.6 °F 63% 30.45 in 10.0 mi NNW 17.3 mph 21.9 mph N/A   Partly Cloudy
8:35 PM 19.4 °F 4.5 °F 8.6 °F 63% 30.46 in 10.0 mi NNW 17.3 mph 21.9 mph N/A   Mostly Cloudy
8:55 PM 19.4 °F 6.6 °F 8.6 °F 63% 30.46 in 10.0 mi NNW 12.7 mph - N/A   Mostly Cloudy
9:15 PM 19.4 °F 6.6 °F 8.6 °F 63% 30.47 in 10.0 mi North 12.7 mph - N/A   Mostly Cloudy
9:35 PM 17.6 °F 2.7 °F 8.6 °F 68% 30.47 in 10.0 mi NNW 16.1 mph 21.9 mph N/A   Scattered Clouds
9:55 PM 17.6 °F 4.3 °F 8.6 °F 68% 30.47 in 10.0 mi North 12.7 mph - N/A   Partly Cloudy
10:15 PM 17.6 °F 5.7 °F 8.6 °F 68% 30.48 in 10.0 mi North 10.4 mph - N/A   Partly Cloudy
10:35 PM 17.6 °F 3.7 °F 8.6 °F 68% 30.48 in 10.0 mi NNW 13.8 mph 20.7 mph N/A   Clear
10:55 PM 17.6 °F 2.7 °F 8.6 °F 68% 30.49 in 10.0 mi NNW 16.1 mph - N/A   Clear
11:15 PM 15.8 °F 1.4 °F 8.6 °F 73% 30.49 in 10.0 mi North 13.8 mph - N/A   Clear
11:35 PM 15.8 °F 2.7 °F 6.8 °F 68% 30.50 in 10.0 mi North 11.5 mph - N/A   Clear
11:55 PM 15.8 °F 2.1 °F 6.8 °F 68% 30.50 in 10.0 mi North 12.7 mph - N/A   Clear